Location: Lewisville
(33.0462°N, 96.9942°W)
Time: 14:02:13
(UTC-05:00)

X-37B - Visible Passes

Search period start: 07 October 2022 00:00
Search period end: 17 October 2022 00:00
Orbit: 329 x 342 km, 45.0° (Epoch: 29 September)

Date Brightness Start Highest point End Pass type
(mag) Time Alt. Az. Time Alt. Az. Time Alt. Az.
07 Oct 1.1 06:34:33 21° W 06:35:56 35° SW 06:38:36 10° SSE visible
08 Oct 3.7 05:23:33 12° ESE 05:23:33 12° ESE 05:23:49 10° ESE visible
08 Oct 2.7 06:55:20 10° WSW 06:56:08 11° SW 06:56:55 10° SSW visible
09 Oct 3.4 05:43:57 11° SSE 05:43:57 11° SSE 05:44:02 10° SSE visible
12 Oct 2.0 19:50:33 10° S 19:52:32 17° SE 19:52:50 17° SE visible
13 Oct 0.2 20:10:02 10° SW 20:12:48 64° SE 20:12:57 63° ESE visible
14 Oct 1.8 20:30:39 10° W 20:32:56 34° NW 20:32:56 34° NW visible
15 Oct 0.3 19:15:28 10° SW 19:18:14 63° SE 19:21:02 10° ENE visible
15 Oct 3.5 20:52:02 10° WNW 20:52:47 13° NW 20:52:47 13° NW visible
16 Oct 1.6 19:36:05 10° W 19:38:42 36° NNW 19:41:17 10° NE visible
